| time (UTC) | temp F | wind direction | speed MPH | gust MPH | rain 1hr in | rain 24hr in | rain mn in | humidity % | barometer mb |
| 20260505001020 | 35 | 169 | 0.0 | 1.0 | 0.06 | 0.40 | 0.33 | 99 | 1002.8 |
| 20260505000055 | 34 | 226 | 1.0 | 2.0 | 0.10 | 0.40 | 0.33 | 99 | 1003.1 |
| 20260504235031 | 34 | 233 | 1.0 | 2.0 | 0.13 | 0.39 | 0.32 | 99 | 1003.0 |
| 20260504234027 | 34 | 230 | 1.0 | 2.0 | 0.15 | 0.38 | 0.31 | 99 | 1002.9 |
| 20260504233021 | 34 | 224 | 2.0 | 3.0 | 0.19 | 0.37 | 0.30 | 99 | 1003.1 |
| 20260504232017 | 34 | 233 | 2.0 | 6.0 | 0.20 | 0.35 | 0.28 | 98 | 1003.1 |
| 20260504231032 | 35 | 255 | 2.0 | 6.0 | 0.22 | 0.34 | 0.27 | 98 | 1003.0 |
| 20260504230028 | 36 | 246 | 2.0 | 8.0 | 0.23 | 0.30 | 0.23 | 97 | 1002.8 |
| 20260504225023 | 36 | 226 | 2.0 | 3.0 | 0.21 | 0.26 | 0.19 | 97 | 1002.7 |
| 20260504224019 | 37 | 217 | 1.0 | 4.0 | 0.19 | 0.23 | 0.16 | 97 | 1002.5 |
| 20260504223114 | 38 | 223 | 2.0 | 6.0 | 0.15 | 0.18 | 0.11 | 96 | 1002.5 |
| 20260504222029 | 39 | 265 | 2.0 | 8.0 | 0.14 | 0.15 | 0.08 | 96 | 1002.6 |
| 20260504221025 | 40 | 230 | 2.0 | 8.0 | 0.11 | 0.12 | 0.05 | 95 | 1002.3 |
| 20260504220020 | 40 | 224 | 2.0 | 4.0 | 0.06 | 0.07 | 0.07 | 95 | 1002.1 |
| 20260504215035 | 41 | 174 | 2.0 | 7.0 | 0.04 | 0.05 | 0.05 | 94 | 1002.0 |
| 20260504214031 | 42 | 207 | 1.0 | 2.0 | 0.03 | 0.04 | 0.04 | 93 | 1002.0 |
| 20260504213025 | 43 | 241 | 2.0 | 7.0 | 0.02 | 0.03 | 0.03 | 90 | 1001.9 |
| 20260504212020 | 44 | 242 | 1.0 | 4.0 | 0.00 | 0.01 | 0.01 | 89 | 1001.8 |
| 20260504211016 | 43 | 223 | 1.0 | 2.0 | 0.00 | 0.01 | 0.01 | 90 | 1001.7 |
| 20260504210051 | 43 | 170 | 0.0 | 1.0 | 0.00 | 0.01 | 0.01 | 91 | 1001.4 |
| 20260504205047 | 44 | 163 | 1.0 | 4.0 | 0.00 | 0.01 | 0.01 | 88 | 1001.5 |
| 20260504204022 | 44 | 227 | 2.0 | 4.0 | 0.00 | 0.01 | 0.01 | 88 | 1001.7 |
| 20260504203018 | 44 | 64 | 2.0 | 4.0 | 0.00 | 0.01 | 0.01 | 88 | 1001.2 |
| 20260504202034 | 44 | 24 | 2.0 | 4.0 | 0.00 | 0.01 | 0.01 | 88 | 1001.3 |
| 20260504201029 | 44 | 164 | 2.0 | 3.0 | 0.00 | 0.01 | 0.01 | 87 | 1001.5 |
| 20260504200024 | 44 | 0.0 | 0.0 | 0.00 | 0.01 | 0.01 | 87 | 1001.7 | |
| 20260504195020 | 44 | 154 | 1.0 | 2.0 | 0.00 | 0.01 | 0.01 | 86 | 1001.6 |
| 20260504194015 | 44 | 170 | 1.0 | 3.0 | 0.00 | 0.01 | 0.01 | 85 | 1001.7 |
| 20260504193031 | 45 | 138 | 2.0 | 3.0 | 0.00 | 0.01 | 0.01 | 84 | 1001.8 |
| 20260504192025 | 45 | 116 | 1.0 | 3.0 | 0.00 | 0.01 | 0.01 | 84 | 1002.0 |
| 20260504191022 | 45 | 162 | 1.0 | 2.0 | 0.00 | 0.01 | 0.01 | 82 | 1001.9 |
| 20260504190016 | 46 | 116 | 2.0 | 4.0 | 0.00 | 0.01 | 0.01 | 81 | 1002.0 |
| 20260504185032 | 46 | 150 | 1.0 | 4.0 | 0.00 | 0.01 | 0.01 | 81 | 1001.6 |
| 20260504184027 | 47 | 147 | 1.0 | 3.0 | 0.00 | 0.01 | 0.01 | 80 | 1001.4 |
| 20260504183047 | 47 | 172 | 1.0 | 2.0 | 0.00 | 0.01 | 0.01 | 80 | 1001.1 |
| 20260504182017 | 48 | 128 | 2.0 | 6.0 | 0.00 | 0.01 | 0.01 | 79 | 1001.2 |
| 20260504181032 | 49 | 135 | 2.0 | 7.0 | 0.00 | 0.01 | 0.01 | 76 | 1000.9 |
| 20260504180028 | 50 | 148 | 1.0 | 3.0 | 0.00 | 0.01 | 0.01 | 72 | 1000.8 |
| 20260504175023 | 52 | 148 | 1.0 | 4.0 | 0.00 | 0.01 | 0.01 | 66 | 1000.6 |
| 20260504174018 | 54 | 82 | 2.0 | 4.0 | 0.00 | 0.01 | 0.01 | 58 | 1000.6 |
| 20260504173033 | 56 | 161 | 2.0 | 7.0 | 0.00 | 0.01 | 0.01 | 47 | 1000.6 |
| 20260504172029 | 58 | 248 | 4.0 | 8.0 | 0.00 | 0.01 | 0.01 | 32 | 1000.3 |
| 20260504171024 | 57 | 245 | 3.0 | 8.0 | 0.00 | 0.01 | 0.01 | 33 | 1000.3 |
| 20260504151025 | 57 | 246 | 4.0 | 7.0 | 0.00 | 0.01 | 0.01 | 56 | 1000.2 |
| 20260504140536 | 51 | 213 | 3.0 | 6.0 | 0.01 | 0.01 | 0.01 | 76 | 1000.6 |
| 20260504130526 | 57 | 263 | 7.0 | 11.0 | 0.00 | 0.00 | 0.00 | 58 | 1000.3 |
| 20260504110524 | 53 | 254 | 9.0 | 17.0 | 0.00 | 0.00 | 0.00 | 69 | 1001.0 |
| 20260504100521 | 53 | 257 | 8.0 | 13.0 | 0.00 | 0.00 | 0.00 | 71 | 1001.3 |
| 20260504081526 | 50 | 202 | 3.0 | 4.0 | 0.00 | 0.00 | 0.00 | 75 | 1002.3 |
| 20260504080520 | 52 | 220 | 4.0 | 9.0 | 0.00 | 0.00 | 0.00 | 72 | 1002.4 |
| 20260504050516 | 44 | 178 | 1.0 | 3.0 | 0.00 | 0.00 | 0.00 | 93 | 1004.1 |
| 20260504045552 | 43 | 196 | 1.0 | 2.0 | 0.00 | 0.00 | 0.00 | 94 | 1004.2 |
| 20260504044528 | 42 | 193 | 1.0 | 2.0 | 0.00 | 0.00 | 0.00 | 96 | 1004.3 |
| 20260504043522 | 42 | 200 | 1.0 | 2.0 | 0.00 | 0.00 | 0.00 | 96 | 1004.5 |
| 20260504042518 | 41 | 197 | 1.0 | 2.0 | 0.00 | 0.00 | 0.00 | 97 | 1004.6 |
| 20260504041534 | 41 | 192 | 0.0 | 1.0 | 0.00 | 0.00 | 0.00 | 97 | 1004.6 |
| 20260504040549 | 41 | 0.0 | 0.0 | 0.00 | 0.00 | 0.00 | 97 | 1004.7 | |
| 20260504035524 | 41 | 0.0 | 0.0 | 0.00 | 0.00 | 0.00 | 97 | 1004.9 | |
| 20260504034519 | 41 | 0.0 | 0.0 | 0.00 | 0.00 | 0.00 | 96 | 1005.1 | |
| 20260504033534 | 41 | 186 | 0.0 | 1.0 | 0.00 | 0.00 | 0.00 | 96 | 1005.1 |
| 20260504032530 | 41 | 187 | 0.0 | 1.0 | 0.00 | 0.00 | 0.00 | 96 | 1005.3 |
| 20260504031525 | 41 | 192 | 0.0 | 1.0 | 0.00 | 0.00 | 0.00 | 96 | 1005.3 |
| 20260504030520 | 41 | 185 | 0.0 | 1.0 | 0.00 | 0.00 | 0.00 | 96 | 1005.4 |
| 20260504025516 | 41 | 192 | 0.0 | 1.0 | 0.00 | 0.00 | 0.00 | 96 | 1005.5 |
| 20260504024531 | 41 | 190 | 0.0 | 2.0 | 0.00 | 0.00 | 0.00 | 96 | 1005.6 |
| 20260504023526 | 41 | 186 | 0.0 | 3.0 | 0.00 | 0.00 | 0.00 | 96 | 1005.6 |
| 20260504022521 | 41 | 185 | 0.0 | 2.0 | 0.00 | 0.00 | 0.00 | 96 | 1005.7 |
| 20260504021538 | 40 | 193 | 0.0 | 1.0 | 0.00 | 0.00 | 0.00 | 96 | 1005.8 |
| 20260504020532 | 40 | 0.0 | 0.0 | 0.00 | 0.00 | 0.00 | 96 | 1006.0 | |
| 20260504015548 | 40 | 186 | 0.0 | 1.0 | 0.00 | 0.00 | 0.00 | 96 | 1006.2 |
| 20260504014523 | 40 | 195 | 0.0 | 1.0 | 0.00 | 0.00 | 0.00 | 97 | 1006.3 |
| 20260504013518 | 40 | 0.0 | 0.0 | 0.00 | 0.00 | 0.00 | 97 | 1006.3 | |
| 20260504012534 | 40 | 179 | 0.0 | 2.0 | 0.00 | 0.00 | 0.00 | 97 | 1006.4 |
| 20260504011529 | 39 | 0.0 | 0.0 | 0.00 | 0.00 | 0.00 | 96 | 1006.5 | |
| 20260504010544 | 40 | 0.0 | 0.0 | 0.00 | 0.00 | 0.00 | 95 | 1006.6 | |
| 20260504005519 | 40 | 0.0 | 0.0 | 0.00 | 0.00 | 0.00 | 95 | 1006.6 | |
| 20260504004535 | 40 | 158 | 0.0 | 1.0 | 0.00 | 0.00 | 0.00 | 95 | 1006.7 |
| 20260504003550 | 41 | 0.0 | 0.0 | 0.00 | 0.00 | 0.00 | 95 | 1006.8 | |
| 20260504002526 | 40 | 173 | 0.0 | 1.0 | 0.00 | 0.00 | 0.00 | 95 | 1006.8 |